When you browse on this site, cookies collect data to enhance your experience and personalize the content and advertising you see.
Visit our Privacy Policy to learn more. By continuing to use the site, you agree to this use of cookies and data.

Hourly Weather Djelfa

Today, 24 September, Thursday

Time Temperature Precipitation Wind Pressure Humidity
00:00 +25°C° 0 mm 3 mps 668 mmHg 35%
01:00 +25°C° 0 mm 3 mps 667 mmHg 34%
02:00 +24°C° 0 mm 3 mps 667 mmHg 34%
03:00 +24°C° 0 mm 2 mps 667 mmHg 33%
04:00 +23°C° 0 mm 2 mps 667 mmHg 35%
05:00 +23°C° 0 mm 1 mps 667 mmHg 38%
06:00 +20°C° 0 mm 0 mps 667 mmHg 42%
07:00 +24°C° 0 mm 1 mps 668 mmHg 38%
08:00 +26°C° 0 mm 1 mps 668 mmHg 33%
09:00 +28°C° 0 mm 1 mps 669 mmHg 28%
10:00 +29°C° 0 mm 2 mps 669 mmHg 27%
11:00 +30°C° 0 mm 3 mps 669 mmHg 25%
12:00 +32°C° 0 mm 4 mps 669 mmHg 24%
13:00 +33°C° 0 mm 4 mps 669 mmHg 23%
14:00 +34°C° 0 mm 5 mps 669 mmHg 22%
15:00 +34°C° 0 mm 5 mps 668 mmHg 21%
16:00 +33°C° 0 mm 4 mps 668 mmHg 24%
17:00 +30°C° 0 mm 3 mps 668 mmHg 27%
18:00 +29°C° 0 mm 2 mps 668 mmHg 31%
19:00 +28°C° 0 mm 2 mps 668 mmHg 32%
20:00 +28°C° 0 mm 2 mps 668 mmHg 33%
21:00 +27°C° 0 mm 2 mps 669 mmHg 34%
22:00 +26°C° 0 mm 2 mps 668 mmHg 35%
23:00 +25°C° 0 mm 3 mps 668 mmHg 36%

Tomorrow, 25 September, Friday

Time Temperature Precipitation Wind Pressure Humidity
00:00 +25°C° 0 mm 3 mps 668 mmHg 37%
01:00 +24°C° 0 mm 3 mps 668 mmHg 38%
02:00 +22°C° 0 mm 3 mps 667 mmHg 40%
03:00 +22°C° 0 mm 3 mps 667 mmHg 41%
04:00 +21°C° 0 mm 3 mps 667 mmHg 42%
05:00 +21°C° 0 mm 3 mps 667 mmHg 44%
06:00 +21°C° 0 mm 3 mps 667 mmHg 45%
07:00 +22°C° 0 mm 4 mps 667 mmHg 40%
08:00 +25°C° 0 mm 5 mps 668 mmHg 34%
09:00 +27°C° 0 mm 6 mps 668 mmHg 29%
10:00 +29°C° 0 mm 8 mps 668 mmHg 26%
11:00 +31°C° 0 mm 10 mps 668 mmHg 24%
12:00 +32°C° 0 mm 12 mps 668 mmHg 21%
13:00 +32°C° 0 mm 13 mps 668 mmHg 22%
14:00 +31°C° 0 mm 13 mps 667 mmHg 23%
15:00 +31°C° 0 mm 14 mps 667 mmHg 24%
16:00 +28°C° 0 mm 13 mps 667 mmHg 29%
17:00 +27°C° 0 mm 12 mps 666 mmHg 33%
18:00 +24°C° 0 mm 11 mps 666 mmHg 38%
19:00 +23°C° 0 mm 11 mps 666 mmHg 43%
20:00 +22°C° 0 mm 11 mps 666 mmHg 48%
21:00 +19°C° 0 mm 11 mps 667 mmHg 52%
22:00 +18°C° 0 mm 10 mps 666 mmHg 55%
23:00 +17°C° 0 mm 10 mps 666 mmHg 57%

Day after tomorrow, 26 September, Saturday

Time Temperature Precipitation Wind Pressure Humidity
00:00 +16°C° 0 mm 9 mps 666 mmHg 60%
01:00 +14°C° 0 mm 10 mps 665 mmHg 62%
02:00 +13°C° 0 mm 10 mps 665 mmHg 64%
03:00 +12°C° 0 mm 10 mps 664 mmHg 65%
04:00 +12°C° 0 mm 10 mps 664 mmHg 68%
05:00 +11°C° 0 mm 10 mps 664 mmHg 71%
06:00 +9°C° 0 mm 10 mps 664 mmHg 74%
07:00 +11°C° 0 mm 10 mps 665 mmHg 68%
08:00 +12°C° 0 mm 10 mps 665 mmHg 63%
09:00 +13°C° 0 mm 10 mps 665 mmHg 57%
10:00 +15°C° 0 mm 9 mps 665 mmHg 52%
11:00 +16°C° 0 mm 9 mps 666 mmHg 46%
12:00 +17°C° 0 mm 8 mps 666 mmHg 40%
13:00 +18°C° 0 mm 8 mps 665 mmHg 37%
14:00 +18°C° 0 mm 8 mps 665 mmHg 33%
15:00 +20°C° 0 mm 7 mps 665 mmHg 30%
16:00 +18°C° 0 mm 7 mps 665 mmHg 32%
17:00 +17°C° 0 mm 7 mps 664 mmHg 34%
18:00 +16°C° 0 mm 6 mps 664 mmHg 36%
19:00 +15°C° 0 mm 6 mps 664 mmHg 40%
20:00 +15°C° 0 mm 5 mps 665 mmHg 44%
21:00 +14°C° 0 mm 5 mps 665 mmHg 47%
22:00 +13°C° 0 mm 6 mps 665 mmHg 47%
23:00 +13°C° 0 mm 6 mps 664 mmHg 48%

27 September, Sunday

Time Temperature Precipitation Wind Pressure Humidity
00:00 +11°C° 0 mm 7 mps 664 mmHg 48%
01:00 +11°C° 0 mm 7 mps 663 mmHg 47%
02:00 +10°C° 0 mm 7 mps 663 mmHg 46%
03:00 +10°C° 0 mm 7 mps 662 mmHg 46%
04:00 +10°C° 0 mm 7 mps 662 mmHg 47%
05:00 +10°C° 0 mm 6 mps 662 mmHg 48%
06:00 +9°C° 0 mm 6 mps 662 mmHg 49%
07:00 +11°C° 0 mm 6 mps 663 mmHg 46%
08:00 +12°C° 0 mm 7 mps 663 mmHg 43%
09:00 +13°C° 0 mm 8 mps 663 mmHg 40%
10:00 +16°C° 0 mm 8 mps 664 mmHg 37%
11:00 +17°C° 0 mm 8 mps 664 mmHg 34%
12:00 +20°C° 0 mm 8 mps 664 mmHg 31%
13:00 +20°C° 0 mm 8 mps 664 mmHg 30%
14:00 +21°C° 0 mm 8 mps 663 mmHg 30%
15:00 +21°C° 0 mm 8 mps 663 mmHg 29%
16:00 +20°C° 0 mm 7 mps 663 mmHg 32%
17:00 +19°C° 0 mm 6 mps 663 mmHg 34%
18:00 +19°C° 0 mm 5 mps 663 mmHg 36%
19:00 +17°C° 0 mm 5 mps 663 mmHg 39%
20:00 +17°C° 0 mm 4 mps 663 mmHg 42%
21:00 +17°C° 0 mm 4 mps 663 mmHg 44%
22:00 +15°C° 0 mm 4 mps 663 mmHg 46%
23:00 +16°C° 0 mm 3 mps 663 mmHg 47%

28 September, Monday

Time Temperature Precipitation Wind Pressure Humidity
00:00 +14°C° 0 mm 3 mps 663 mmHg 48%
01:00 +14°C° 0 mm 4 mps 663 mmHg 49%
02:00 +14°C° 0 mm 4 mps 663 mmHg 49%
03:00 +14°C° 0 mm 4 mps 663 mmHg 50%
04:00 +13°C° 0 mm 4 mps 663 mmHg 52%
05:00 +13°C° 0 mm 4 mps 663 mmHg 53%
06:00 +13°C° 0 mm 3 mps 663 mmHg 55%
07:00 +14°C° 0 mm 4 mps 664 mmHg 51%
08:00 +15°C° 0 mm 4 mps 665 mmHg 47%
09:00 +18°C° 0 mm 4 mps 666 mmHg 42%
10:00 +19°C° 0 mm 4 mps 666 mmHg 39%
11:00 +20°C° 0 mm 5 mps 666 mmHg 35%
12:00 +21°C° 0 mm 5 mps 666 mmHg 31%
13:00 +22°C° 0 mm 5 mps 666 mmHg 29%
14:00 +22°C° 0 mm 5 mps 666 mmHg 28%
15:00 +23°C° 0 mm 5 mps 665 mmHg 27%
16:00 +22°C° 0 mm 4 mps 665 mmHg 28%
17:00 +22°C° 0 mm 3 mps 665 mmHg 30%
18:00 +21°C° 0 mm 2 mps 665 mmHg 31%
19:00 +20°C° 0 mm 2 mps 665 mmHg 34%
20:00 +20°C° 0 mm 1 mps 666 mmHg 36%
21:00 +19°C° 0 mm 1 mps 666 mmHg 39%
22:00 +19°C° 0 mm 1 mps 666 mmHg 39%
23:00 +18°C° 0 mm 2 mps 666 mmHg 39%

29 September, Tuesday

Time Temperature Precipitation Wind Pressure Humidity
00:00 +18°C° 0 mm 2 mps 666 mmHg 39%
01:00 +17°C° 0 mm 3 mps 666 mmHg 43%
02:00 +17°C° 0 mm 4 mps 666 mmHg 48%
03:00 +15°C° 0 mm 5 mps 666 mmHg 53%
04:00 +15°C° 0 mm 4 mps 666 mmHg 53%
05:00 +15°C° 0 mm 4 mps 666 mmHg 53%
06:00 +15°C° 0 mm 4 mps 666 mmHg 54%
07:00 +17°C° 0 mm 5 mps 667 mmHg 48%
08:00 +19°C° 0 mm 5 mps 667 mmHg 43%
09:00 +21°C° 0 mm 6 mps 668 mmHg 38%
10:00 +22°C° 0 mm 7 mps 668 mmHg 34%
11:00 +24°C° 0 mm 7 mps 668 mmHg 31%
12:00 +27°C° 0 mm 8 mps 668 mmHg 27%
13:00 +27°C° 0 mm 8 mps 668 mmHg 26%
14:00 +28°C° 0 mm 8 mps 668 mmHg 24%
15:00 +28°C° 0 mm 8 mps 668 mmHg 23%
16:00 +28°C° 0 mm 7 mps 667 mmHg 25%
17:00 +27°C° 0 mm 6 mps 667 mmHg 26%
18:00 +26°C° 0 mm 6 mps 667 mmHg 28%
19:00 +24°C° 0 mm 6 mps 667 mmHg 30%
20:00 +23°C° 0 mm 6 mps 667 mmHg 31%
21:00 +23°C° 0 mm 7 mps 667 mmHg 33%
22:00 +22°C° 0 mm 7 mps 667 mmHg 35%
23:00 +21°C° 0 mm 7 mps 667 mmHg 36%
Show more